Location: ?????
(30.2541°N, 31.0910°E)
Time: 12:44:10
(UTC+00:00)

SL-08 R/B - Pass Details

Date: 27 September 2022
Orbit: 673 x 738 km, 98.5° (Epoch: 26 November)

Event Time Altitude Azimuth Distance (km) Brightness Sun altitude
Rises 02:12:06 0° 159° (SSE) 3,007 6.7 -21.1°
Reaches altitude 10° 02:14:20 10° 156° (SSE) 2,099 5.9 -20.7°
Maximum altitude 02:18:51 63° 75° (ENE) 757 3.7 -19.7°
Drops below altitude 10° 02:23:27 10° 355° (N) 2,136 5.9 -18.7°
Sets 02:25:44 0° 352° (N) 3,065 6.6 -18.2°
